Wind_Speed
13 12 12 12 11 10 10 9 9 8 8 8 8 8 9 9 9 9 9 10 10 10 11 12 12 12 12 12 12 13 13 14 14 15 15 16 16 17 17 17 18 18 18
13 13 12 10 10 10 10 10 10 9 9 9 8 9 10 10 9 9 9 9 8 9 10 11 11 11 12 12 12 13 13 14 14 14 15 16 16 16 16 17 18 18 19
14 14 12 12 12 11 11 11 11 10 9 9 9 10 10 10 10 10 10 9 9 9 10 10 10 10 11 12 12 12 12 13 13 13 14 15 15 16 17 17 18 18 18
14 14 13 13 12 12 13 12 11 11 10 10 11 11 10 10 10 10 10 10 10 9 9 9 9 9 10 11 12 12 12 12 13 13 13 14 15 16 16 17 18 18 18
14 14 14 13 13 13 13 13 13 13 13 12 12 12 12 12 12 11 11 11 11 11 10 10 10 10 11 11 12 12 12 13 13 13 13 14 15 16 16 17 18 18 18
15 14 14 14 14 13 13 13 14 14 15 14 13 13 14 13 13 13 13 13 12 12 12 12 12 12 13 13 13 13 13 13 13 14 14 15 16 16 17 17 18 19 19
15 15 15 16 16 15 15 15 15 16 16 16 15 15 15 16 15 15 15 14 14 13 14 14 13 13 14 14 14 14 14 14 15 15 16 17 17 18 18 18 19 20 20
16 16 16 16 16 16 17 17 17 17 17 17 17 16 17 17 16 16 16 16 15 15 15 15 15 15 16 16 15 15 16 16 16 17 17 17 18 18 19 20 20 21 21
17 17 17 17 17 18 18 18 18 18 18 17 17 16 17 17 16 17 17 17 17 16 16 16 17 17 17 17 17 17 17 17 18 18 18 18 19 19 20 21 21 21 22
18 18 17 17 17 18 19 18 18 18 17 17 17 17 17 18 17 18 18 19 19 18 18 18 18 19 19 18 18 18 18 19 19 19 19 20 20 21 21 22 22 22 23
19 19 18 18 18 18 19 19 18 18 18 18 18 18 18 18 18 18 19 20 20 20 19 19 19 20 20 20 20 20 20 20 20 20 21 21 21 22 22 23 23 23 23
21 20 20 19 19 19 19 19 19 19 19 19 19 19 19 19 19 20 20 20 20 20 20 20 21 21 21 20 20 21 21 21 21 21 21 21 22 22 22 23 23 23 23
22 22 21 19 19 19 19 18 19 19 19 20 20 20 20 20 20 20 20 20 19 19 20 21 21 22 21 21 21 21 21 22 21 21 21 22 22 21 22 22 22 22 23
22 22 22 20 19 19 19 19 19 19 20 21 21 21 21 21 21 20 20 19 19 20 20 21 22 22 22 21 21 21 21 21 21 21 21 21 22 22 22 23 23 23 23
22 21 21 21 20 20 20 20 20 20 20 21 21 22 22 22 21 20 20 20 20 20 20 21 21 21 21 21 21 21 21 21 21 21 22 22 22 23 23 23 24 24 24
22 21 21 21 21 21 20 20 21 21 21 21 21 21 20 21 20 20 20 20 20 20 21 21 21 21 21 21 21 21 21 21 21 22 22 23 23 23 23 24 24 24 24
22 22 22 22 22 22 22 21 21 21 21 21 22 22 21 21 21 21 22 22 21 21 21 21 21 21 22 22 22 22 21 22 22 22 23 23 24 24 25 25 25 25 25
22 22 22 22 22 22 22 21 21 21 21 21 21 21 22 21 21 21 21 21 21 21 21 21 21 21 22 22 22 22 22 22 23 23 24 24 24 25 26 26 26 26 26
22 22 22 22 22 22 22 22 22 22 22 21 21 22 22 21 22 21 21 20 20 20 20 20 21 21 21 22 22 22 23 23 24 24 25 25 25 26 26 27 27 27 27
22 22 22 23 23 22 22 22 22 22 22 22 22 23 22 22 22 22 21 20 20 20 20 20 20 21 22 22 23 23 23 24 25 25 26 26 27 27 28 28 28 28 27
22 22 22 22 22 22 22 22 22 23 23 23 23 23 22 21 22 22 21 20 21 21 21 21 21 21 22 22 23 23 24 25 25 26 26 27 28 28 28 29 29 29 29
22 22 22 22 22 23 23 23 23 23 23 23 23 22 22 21 21 22 22 21 22 22 23 22 22 22 23 24 24 24 25 25 26 27 27 28 28 28 29 29 30 29 29
21 22 22 23 23 23 24 24 24 24 24 23 23 22 22 22 22 21 22 22 22 23 23 24 24 24 25 25 26 26 26 26 27 27 28 29 29 29 30 30 29 29 29
21 21 21 21 22 23 23 24 24 24 24 24 23 23 23 23 23 22 22 22 23 24 24 25 25 26 26 27 27 27 27 27 28 28 28 29 29 30 30 30 30 30 30
20 21 21 22 22 22 23 23 23 24 24 23 23 23 23 23 23 23 23 23 23 23 23 24 24 25 26 27 27 27 27 28 28 28 29 29 29 29 29 29 29 29 30
20 20 21 21 22 22 22 23 23 23 23 23 23 23 23 23 23 23 23 23 24 24 24 24 24 25 25 26 26 27 27 27 28 28 28 28 28 28 28 28 28 28 29
Wind_Direction
286 284 281 277 264 255 253 254 254 262 267 268 266 267 273 275 279 283 285 284 275 269 266 268 267 263 258 262 267 268 270 270 268 267 268 268 267 270 274 277 278 279 281
286 281 276 273 263 258 252 252 255 261 264 267 268 270 273 274 276 282 285 286 281 278 273 269 265 264 266 267 271 271 271 269 268 270 273 271 270 273 275 276 277 280 281
280 275 270 267 265 261 259 257 257 258 264 269 271 274 278 278 278 279 278 280 282 282 283 278 275 269 269 273 274 274 272 271 270 274 276 276 273 275 277 278 279 280 281
272 271 266 264 266 262 262 260 258 261 266 268 273 276 280 280 280 276 273 272 275 282 284 283 282 280 277 278 280 277 275 274 274 275 279 280 278 279 280 281 281 282 282
266 265 264 264 266 266 263 259 257 261 263 267 272 273 278 279 276 273 273 273 273 276 278 280 282 282 282 283 285 282 280 278 277 275 279 282 281 281 280 282 282 284 284
267 264 264 266 266 265 260 259 255 258 264 266 269 272 275 275 274 272 272 272 273 273 274 277 279 280 281 283 285 283 282 279 278 279 282 284 283 284 283 283 284 285 285
267 265 263 264 265 262 261 260 260 261 263 263 267 270 274 272 272 272 269 267 270 272 273 273 274 278 281 281 280 281 281 281 279 281 285 286 285 285 286 286 287 287 287
268 265 263 264 262 261 261 262 262 264 263 262 264 269 272 272 271 269 267 266 268 270 270 272 273 276 280 281 280 280 281 282 282 282 285 286 287 286 287 288 288 287 288
267 267 264 262 261 263 264 264 264 265 266 265 265 268 270 271 270 267 266 267 268 268 269 271 273 276 277 278 279 280 280 281 282 284 286 287 289 290 289 289 288 288 288
268 270 270 267 264 264 265 266 266 265 265 265 264 266 268 270 271 268 267 268 269 269 269 271 274 275 277 278 280 281 281 281 282 283 284 285 288 290 290 291 291 290 289
268 270 269 269 268 266 266 264 263 263 263 264 264 265 267 269 271 272 271 270 270 269 271 273 275 277 277 279 279 279 281 282 284 286 287 288 290 290 292 293 292 291 291
265 265 266 268 269 268 266 262 260 261 261 263 264 265 267 268 270 272 273 272 272 271 272 274 276 277 278 279 279 279 280 281 283 286 289 291 292 292 292 293 293 292 291
262 263 263 264 266 266 265 263 259 259 261 262 263 266 267 268 270 272 273 274 273 272 271 272 275 276 278 280 280 281 282 282 283 285 288 290 293 293 293 294 293 293 293
262 261 261 261 263 264 265 265 262 262 264 264 264 265 267 269 271 272 273 274 276 276 275 274 275 276 277 279 280 282 283 283 284 286 288 290 293 293 294 294 293 293 293
260 260 260 261 263 265 268 268 265 265 267 266 267 268 269 271 272 273 274 275 277 278 279 278 277 277 277 278 280 282 283 284 285 287 289 291 292 293 293 294 294 295 294
261 261 261 264 265 265 268 270 270 269 270 269 269 270 271 272 273 276 276 276 278 280 280 280 277 276 277 279 281 283 283 283 285 287 288 289 291 292 292 293 294 295 295
260 260 261 263 265 264 265 270 270 269 270 270 270 271 272 275 277 277 278 278 280 281 280 279 277 277 278 279 280 281 281 282 283 285 287 289 290 291 291 292 293 293 294
260 260 261 262 264 265 267 269 270 271 270 269 269 271 271 273 275 276 277 277 278 279 279 278 278 278 279 279 279 280 281 283 285 286 287 288 289 290 290 291 291 292 293
261 260 260 260 262 265 267 270 270 269 270 271 271 272 271 271 273 274 276 276 275 277 278 277 278 279 280 280 281 281 282 284 286 288 289 289 289 289 289 290 291 291 292
260 258 258 259 262 263 266 268 268 266 268 270 271 272 271 269 270 272 273 273 274 276 277 277 278 278 280 282 283 284 285 286 287 288 289 290 290 289 290 290 290 291 292
257 257 258 260 261 264 266 267 266 266 267 268 270 272 271 269 269 269 271 272 272 273 274 276 278 280 280 282 284 285 286 287 288 289 289 290 292 292 291 291 291 291 291
257 258 259 261 262 264 266 266 267 267 266 266 268 268 268 271 271 271 271 271 271 271 273 276 279 279 280 283 285 285 286 287 290 291 291 292 294 294 294 293 292 292 291
258 260 262 263 262 263 265 267 267 267 266 265 266 265 268 270 273 273 271 271 273 274 275 276 277 279 281 283 285 286 287 288 291 292 292 293 293 294 295 294 293 292 292
260 261 263 264 263 263 265 266 266 266 267 267 265 265 268 271 272 273 273 273 274 275 275 277 279 280 282 283 284 285 286 288 291 292 293 294 294 294 294 293 293 292 292
262 263 263 264 264 264 264 266 267 266 266 265 265 265 267 270 270 271 274 275 276 278 278 278 280 282 282 282 283 284 285 287 289 291 293 294 295 296 296 294 294 295 295
264 264 265 264 264 265 266 268 269 268 266 265 265 266 267 269 270 272 274 277 278 279 280 281 283 284 285 285 285 285 286 287 289 292 294 294 295 296 296 296 297 297 296
Height
5817 5816 5816 5815 5815 5815 5816 5817 5817 5817 5817 5817 5817 5817 5817 5816 5815 5815 5814 5814 5814 5814 5813 5813 5813 5813 5812 5812 5812 5812 5812 5812 5812 5812 5812 5812 5812 5813 5813 5812 5812 5811 5811
5813 5813 5813 5813 5813 5813 5813 5814 5814 5815 5815 5815 5815 5814 5814 5814 5813 5813 5812 5812 5812 5811 5811 5810 5810 5809 5810 5809 5808 5808 5808 5808 5808 5808 5808 5808 5808 5808 5808 5808 5807 5807 5806
5810 5810 5810 5810 5810 5810 5810 5811 5811 5812 5812 5812 5812 5812 5812 5811 5811 5810 5810 5810 5809 5809 5808 5808 5807 5807 5806 5806 5805 5805 5805 5805 5805 5805 5805 5804 5804 5804 5804 5804 5803 5802 5802
5807 5807 5807 5807 5807 5807 5807 5807 5808 5809 5809 5809 5810 5810 5809 5809 5808 5808 5808 5807 5807 5806 5806 5805 5805 5804 5804 5803 5802 5802 5801 5801 5802 5802 5801 5801 5801 5800 5800 5799 5799 5798 5797
5803 5803 5803 5803 5803 5804 5804 5804 5804 5805 5806 5806 5806 5806 5806 5806 5805 5805 5805 5805 5804 5804 5803 5802 5802 5801 5801 5800 5799 5799 5798 5798 5798 5798 5798 5797 5797 5796 5796 5795 5794 5793 5792
5798 5799 5799 5799 5799 5800 5800 5800 5801 5801 5802 5802 5802 5803 5803 5802 5802 5802 5802 5801 5801 5801 5800 5800 5799 5798 5798 5797 5796 5795 5795 5795 5795 5795 5794 5793 5793 5792 5791 5791 5790 5789 5788
5794 5794 5795 5795 5795 5796 5796 5796 5796 5797 5797 5798 5798 5798 5798 5798 5798 5798 5798 5797 5797 5797 5796 5796 5796 5795 5795 5794 5793 5792 5792 5791 5791 5791 5790 5789 5789 5788 5787 5786 5784 5783 5782
5789 5789 5790 5790 5790 5791 5791 5791 5792 5792 5793 5793 5793 5794 5794 5794 5793 5793 5793 5793 5793 5793 5792 5792 5792 5791 5791 5790 5790 5789 5788 5788 5787 5786 5786 5785 5784 5783 5782 5781 5779 5778 5777
5784 5784 5785 5785 5785 5785 5786 5786 5787 5787 5788 5788 5789 5789 5789 5789 5789 5789 5789 5788 5788 5788 5788 5788 5788 5787 5787 5786 5786 5785 5784 5783 5783 5782 5781 5780 5779 5777 5776 5775 5774 5772 5771
5779 5779 5779 5779 5780 5780 5781 5781 5782 5782 5783 5784 5784 5784 5784 5784 5784 5784 5784 5783 5783 5783 5783 5783 5783 5783 5782 5781 5781 5780 5780 5779 5778 5777 5776 5775 5774 5772 5770 5769 5767 5766 5764
5773 5773 5774 5774 5774 5774 5775 5775 5776 5777 5778 5778 5779 5779 5779 5779 5778 5778 5778 5778 5778 5778 5778 5778 5778 5777 5776 5776 5775 5775 5774 5773 5772 5771 5770 5769 5768 5766 5764 5762 5761 5759 5758
5767 5768 5768 5768 5768 5769 5769 5770 5771 5771 5772 5772 5773 5773 5773 5773 5773 5772 5772 5772 5772 5772 5772 5772 5771 5771 5770 5770 5769 5769 5768 5767 5766 5765 5764 5763 5762 5760 5758 5756 5754 5753 5752
5761 5761 5762 5763 5763 5763 5764 5764 5765 5765 5766 5766 5767 5767 5767 5767 5767 5767 5766 5766 5766 5766 5766 5766 5765 5765 5764 5764 5763 5762 5762 5761 5760 5759 5758 5757 5755 5754 5752 5750 5748 5747 5745
5755 5755 5756 5757 5757 5758 5758 5759 5759 5760 5760 5761 5761 5761 5761 5761 5761 5761 5761 5760 5760 5759 5759 5759 5759 5758 5758 5758 5757 5756 5755 5754 5753 5753 5752 5750 5749 5748 5746 5744 5743 5741 5739
5749 5749 5750 5751 5752 5752 5753 5753 5754 5755 5755 5755 5755 5755 5755 5756 5755 5755 5754 5754 5754 5753 5753 5752 5752 5751 5751 5751 5750 5749 5749 5748 5747 5746 5745 5744 5743 5741 5740 5738 5736 5734 5733
5742 5743 5744 5744 5745 5746 5747 5747 5747 5748 5748 5749 5749 5749 5749 5749 5749 5748 5748 5748 5747 5747 5746 5745 5745 5744 5744 5744 5743 5742 5742 5741 5740 5739 5738 5737 5736 5734 5733 5731 5729 5728 5726
5736 5737 5737 5738 5739 5739 5740 5741 5741 5742 5742 5742 5742 5742 5743 5742 5742 5742 5741 5741 5740 5740 5739 5738 5738 5738 5737 5737 5736 5736 5735 5734 5733 5732 5731 5730 5729 5727 5726 5724 5722 5720 5719
5728 5729 5730 5731 5732 5733 5734 5734 5735 5735 5736 5736 5736 5736 5736 5736 5735 5735 5734 5734 5733 5733 5732 5732 5731 5731 5730 5730 5729 5728 5728 5727 5726 5725 5724 5722 5721 5720 5718 5716 5715 5713 5711
5721 5722 5723 5724 5725 5726 5727 5728 5728 5729 5729 5729 5729 5729 5729 5729 5729 5728 5727 5727 5727 5726 5726 5725 5725 5724 5724 5723 5722 5721 5720 5719 5718 5717 5716 5715 5713 5711 5710 5708 5706 5704 5703
5713 5715 5716 5717 5718 5719 5720 5721 5721 5722 5722 5723 5722 5722 5722 5722 5722 5721 5721 5720 5720 5720 5719 5719 5718 5718 5717 5716 5715 5714 5713 5712 5711 5709 5708 5707 5705 5703 5701 5699 5698 5696 5694
5706 5708 5709 5710 5711 5712 5713 5714 5714 5715 5715 5716 5716 5715 5715 5714 5714 5714 5714 5714 5714 5713 5713 5712 5711 5711 5710 5709 5708 5707 5706 5704 5703 5702 5700 5699 5697 5694 5692 5691 5689 5687 5685
5699 5700 5702 5703 5704 5705 5706 5706 5707 5707 5707 5708 5708 5708 5707 5707 5707 5707 5706 5706 5706 5706 5706 5705 5704 5704 5703 5702 5701 5699 5698 5697 5695 5694 5692 5690 5688 5686 5684 5682 5680 5678 5676
5692 5693 5694 5695 5696 5697 5698 5698 5699 5699 5700 5700 5700 5700 5700 5700 5700 5699 5699 5699 5699 5699 5698 5698 5697 5696 5695 5694 5693 5692 5690 5689 5687 5685 5684 5682 5679 5677 5675 5673 5671 5669 5667
5685 5686 5687 5688 5689 5689 5690 5690 5691 5691 5692 5692 5692 5692 5692 5692 5692 5692 5692 5692 5692 5691 5691 5690 5689 5688 5687 5686 5685 5683 5682 5680 5679 5677 5675 5673 5671 5669 5666 5664 5662 5660 5658
5678 5679 5680 5680 5681 5681 5682 5682 5682 5683 5683 5684 5684 5684 5684 5685 5685 5685 5685 5685 5684 5684 5683 5682 5681 5680 5679 5678 5676 5675 5674 5672 5670 5669 5667 5665 5663 5660 5658 5655 5653 5651 5649
5671 5672 5672 5673 5673 5674 5674 5674 5674 5675 5675 5676 5676 5677 5677 5677 5677 5677 5677 5677 5676 5676 5675 5674 5673 5672 5671 5670 5668 5667 5665 5664 5662 5660 5658 5656 5654 5652 5650 5647 5645 5643 5641